Weather History for Puyallup, WA

Change the Weather History Date:

Sunday, October 28, 2012

  Actual Average (KTCM) Record (KTCM)
Temperature  
Mean Temperature 54 °F -  
Max Temperature 59 °F 53 °F 64 °F (2007)
Min Temperature 50 °F 35 °F 28 °F (1956)
Degree Days  
Heating Degree Days 10    
Growing Degree Days 4 (Base 50)    
Moisture  
Dew Point 54 °F    
Average Humidity 97    
Maximum Humidity 100    
Minimum Humidity 82    
Precipitation  
Precipitation 0.41 in - - ()
Sea Level Pressure  
Sea Level Pressure 29.91 in    
Wind  
Wind Speed 3 mph (WSW)    
Max Wind Speed 9 mph    
Max Gust Speed -    
Visibility 9 miles    
Events Rain    
Averages and records for this station are not official NWS values.
T = Trace of Precipitation, MM = Missing Value Source: NWS Daily Summary

Daily Weather History Graph

Daily Weather History Graph

Search for Another Location

Airport:

Trip Planner

Search our weather history database for the weather conditions in past years. The results will help you decide how hot, cold, wet, or windy it might be!

Date:

Astronomy

Oct. 28, 2012 Rise Set
Actual Time 7:47 AM PDT 5:58 PM PDT
Civil Twilight 7:15 AM PDT 6:29 PM PDT
Nautical Twilight 6:39 AM PDT 7:05 PM PDT
Astronomical Twilight 6:04 AM PDT 7:40 PM PDT
Moon 5:18 PM PDT (10/28) 6:44 AM PDT (10/28)
Length of Visible Light 11h 14m
Length of Day
10h 11m
Waxing Gibbous, 99% of the Moon is Illuminated
Oct 28
Waxing Gibbous
Oct 29
Full
Nov 6
Last Quarter
Nov 13
New
Nov 20
First Quarter

Hourly Weather History & Observations

Time (PDT) Temp. Dew Point Humidity Pressure Visibility Wind Dir Wind Speed Gust Speed Precip Events Conditions
12:15 AM 57.2 °F 57.2 °F 100% 29.88 in 8.0 mi SW 4.6 mph - N/A Rain Light Rain
12:35 AM 57.2 °F 57.2 °F 100% 29.88 in 4.0 mi Calm Calm - 0.01 in Rain Light Rain
12:55 AM 57.2 °F 57.2 °F 100% 29.89 in 10.0 mi SW 3.5 mph - 0.02 in   Overcast
1:15 AM 57.2 °F 57.2 °F 100% 29.90 in 7.0 mi SW 6.9 mph - N/A Rain Light Rain
1:35 AM 57.2 °F 57.2 °F 100% 29.90 in 3.0 mi SW 4.6 mph - 0.04 in Rain Light Rain
1:55 AM 57.2 °F 57.2 °F 100% 29.91 in 9.0 mi SW 4.6 mph - 0.05 in Rain Light Rain
2:15 AM 57.2 °F 57.2 °F 100% 29.91 in 10.0 mi SW 5.8 mph - N/A   Partly Cloudy
2:35 AM 55.4 °F 55.4 °F 100% 29.91 in 10.0 mi SW 5.8 mph - N/A   Partly Cloudy
2:55 AM 55.4 °F 55.4 °F 100% 29.92 in 10.0 mi SW 3.5 mph - N/A   Clear
3:15 AM 55.4 °F 55.4 °F 100% 29.93 in 10.0 mi SW 4.6 mph - N/A   Partly Cloudy
3:35 AM 55.4 °F 55.4 °F 100% 29.93 in 10.0 mi Calm Calm - N/A   Scattered Clouds
3:55 AM 55.4 °F 55.4 °F 100% 29.94 in 10.0 mi WSW 4.6 mph - N/A   Mostly Cloudy
4:15 AM 55.4 °F 55.4 °F 100% 29.94 in 10.0 mi Calm Calm - N/A   Overcast
4:35 AM 55.4 °F 55.4 °F 100% 29.95 in 10.0 mi West 9.2 mph - N/A   Overcast
4:55 AM 55.4 °F 55.4 °F 100% 29.95 in 10.0 mi West 5.8 mph - N/A   Mostly Cloudy
5:15 AM 55.4 °F 55.4 °F 100% 29.95 in 10.0 mi West 5.8 mph - N/A   Mostly Cloudy
5:35 AM 55.4 °F 55.4 °F 100% 29.95 in 10.0 mi West 4.6 mph - N/A   Overcast
5:55 AM 55.4 °F 55.4 °F 100% 29.95 in 10.0 mi Calm Calm - N/A   Mostly Cloudy
6:15 AM 53.6 °F 53.6 °F 100% 29.95 in 10.0 mi Calm Calm - N/A   Scattered Clouds
6:35 AM 53.6 °F 53.6 °F 100% 29.95 in 10.0 mi Calm Calm - N/A   Partly Cloudy
6:55 AM 53.6 °F 53.6 °F 100% 29.95 in 10.0 mi Calm Calm - N/A   Clear
7:15 AM 51.8 °F 51.8 °F 100% 29.95 in 10.0 mi SW 3.5 mph - N/A   Partly Cloudy
7:55 AM 53.6 °F 53.6 °F 100% 29.95 in 10.0 mi WSW 3.5 mph - N/A   Overcast
8:15 AM 53.6 °F 53.6 °F 100% 29.95 in 10.0 mi WSW 4.6 mph - N/A   Scattered Clouds
8:35 AM 53.6 °F 53.6 °F 100% 29.95 in 10.0 mi WSW 4.6 mph - N/A   Partly Cloudy
8:55 AM 53.6 °F 53.6 °F 100% 29.95 in 10.0 mi WSW 4.6 mph - N/A   Partly Cloudy
9:15 AM 53.6 °F 53.6 °F 100% 29.95 in 10.0 mi WSW 4.6 mph - N/A   Mostly Cloudy
9:35 AM 53.6 °F 53.6 °F 100% 29.96 in 10.0 mi Calm Calm - N/A   Mostly Cloudy
9:55 AM 53.6 °F 53.6 °F 100% 29.95 in 10.0 mi West 3.5 mph - N/A   Mostly Cloudy
10:15 AM 55.4 °F 55.4 °F 100% 29.96 in 10.0 mi West 4.6 mph - N/A   Mostly Cloudy
10:35 AM 55.4 °F 55.4 °F 100% 29.95 in 10.0 mi WSW 3.5 mph - N/A   Mostly Cloudy
10:55 AM 55.4 °F 55.4 °F 100% 29.96 in 10.0 mi West 3.5 mph - N/A   Overcast
11:15 AM 55.4 °F 55.4 °F 100% 29.95 in 10.0 mi Calm Calm - N/A   Mostly Cloudy
11:35 AM 57.2 °F 55.4 °F 94% 29.95 in 10.0 mi Calm Calm - N/A   Mostly Cloudy
11:55 AM 57.2 °F 55.4 °F 94% 29.95 in 10.0 mi WSW 5.8 mph - N/A   Mostly Cloudy
12:15 PM 57.2 °F 55.4 °F 94% 29.95 in 10.0 mi West 4.6 mph - N/A   Partly Cloudy
12:35 PM 57.2 °F 55.4 °F 94% 29.95 in 10.0 mi Calm Calm - N/A   Clear
12:55 PM 57.2 °F 55.4 °F 94% 29.94 in 10.0 mi Calm Calm - N/A   Clear
1:15 PM 59.0 °F 55.4 °F 88% 29.94 in 10.0 mi Calm Calm - N/A   Clear
1:35 PM 59.0 °F 55.4 °F 88% 29.93 in 10.0 mi Calm Calm - N/A   Clear
1:55 PM 59.0 °F 55.4 °F 88% 29.93 in 10.0 mi SW 3.5 mph - N/A   Partly Cloudy
2:15 PM 59.0 °F 55.4 °F 88% 29.92 in 10.0 mi WSW 3.5 mph - N/A   Clear
2:35 PM 59.0 °F 55.4 °F 88% 29.92 in 10.0 mi West 4.6 mph - N/A   Clear
2:55 PM 59.0 °F 55.4 °F 88% 29.92 in 10.0 mi West 4.6 mph - N/A   Clear
3:15 PM 59.0 °F 55.4 °F 88% 29.91 in 10.0 mi Calm Calm - N/A   Clear
3:35 PM 59.0 °F 55.4 °F 88% 29.91 in 10.0 mi Calm Calm - N/A   Partly Cloudy
3:55 PM 59.0 °F 53.6 °F 82% 29.91 in 10.0 mi Calm Calm - N/A   Scattered Clouds
4:15 PM 59.0 °F 53.6 °F 82% 29.91 in 10.0 mi West 3.5 mph - N/A   Scattered Clouds
4:35 PM 57.2 °F 53.6 °F 88% 29.91 in 10.0 mi Calm Calm - N/A Rain Light Rain
4:55 PM 57.2 °F 51.8 °F 82% 29.90 in 9.0 mi WSW 3.5 mph - N/A Rain Light Rain
5:15 PM 55.4 °F 53.6 °F 94% 29.89 in 10.0 mi Calm Calm - N/A Rain Light Rain
5:35 PM 55.4 °F 53.6 °F 94% 29.89 in 9.0 mi Calm Calm - N/A Rain Light Rain
5:55 PM 53.6 °F 53.6 °F 100% 29.88 in 10.0 mi Calm Calm - N/A Rain Light Rain
6:55 PM 51.8 °F 51.8 °F 100% 29.88 in 4.0 mi Calm Calm - 0.06 in Rain Light Rain
7:15 PM 50.0 °F 50.0 °F 100% 29.86 in 5.0 mi Calm Calm - 0.01 in Rain Light Rain
7:35 PM 50.0 °F 50.0 °F 100% 29.85 in 6.0 mi Calm Calm - 0.02 in Rain Light Rain
7:55 PM 50.0 °F 50.0 °F 100% 29.85 in 10.0 mi Calm Calm - 0.02 in   Overcast
8:15 PM 50.0 °F 50.0 °F 100% 29.84 in 10.0 mi Calm Calm - N/A   Overcast
8:35 PM 50.0 °F 50.0 °F 100% 29.83 in 4.0 mi Calm Calm - 0.02 in Rain Light Rain
8:55 PM 50.0 °F 50.0 °F 100% 29.82 in 7.0 mi Calm Calm - 0.03 in Rain Light Rain
9:15 PM 50.0 °F 50.0 °F 100% 29.82 in 3.0 mi Calm Calm - N/A Rain Light Rain
9:55 PM 50.0 °F 50.0 °F 100% 29.81 in 2.5 mi Calm Calm - 0.01 in Rain Light Rain
10:15 PM 50.0 °F 50.0 °F 100% 29.81 in 4.0 mi Calm Calm - 0.01 in Rain Light Rain
10:35 PM 50.0 °F 50.0 °F 100% 29.80 in 3.0 mi Calm Calm - 0.05 in Rain Light Rain
10:55 PM 50.0 °F 50.0 °F 100% 29.80 in 4.0 mi Calm Calm - 0.11 in Rain Light Rain
11:15 PM 50.0 °F 50.0 °F 100% 29.80 in 5.0 mi Calm Calm - 0.02 in Rain Light Rain
11:35 PM 50.0 °F 50.0 °F 100% 29.79 in 2.5 mi Calm Calm - 0.09 in Rain Rain
11:55 PM 50.0 °F 50.0 °F 100% 29.78 in 2.5 mi Calm Calm - 0.11 in Rain Light Rain